• In Austria
  • List of Countries
  • For 7 days
  • Water Temperature
  • Satellite Maps
  • Weather Map
  • News
  • Weather Widgets
  • user-avatar
    Login

    Hourly Weather Trashigang

    Today, 19 October, Thursday

    Time Temperature Precipitation Wind Pressure Humidity
    00:00 +15°C° 0 mm 2 mps 628 mmHg 67%
    01:00 +15°C° 0 mm 2 mps 628 mmHg 65%
    02:00 +15°C° 0 mm 2 mps 628 mmHg 63%
    03:00 +15°C° 0 mm 2 mps 627 mmHg 61%
    04:00 +14°C° 0 mm 2 mps 628 mmHg 59%
    05:00 +14°C° 0 mm 2 mps 628 mmHg 56%
    06:00 +14°C° 0 mm 2 mps 628 mmHg 53%
    07:00 +19°C° 0 mm 1 mps 629 mmHg 46%
    08:00 +22°C° 0 mm 1 mps 630 mmHg 38%
    09:00 +26°C° 0 mm 1 mps 632 mmHg 31%
    10:00 +27°C° 0 mm 1 mps 631 mmHg 31%
    11:00 +27°C° 0 mm 1 mps 631 mmHg 32%
    12:00 +28°C° 0 mm 2 mps 630 mmHg 32%
    13:00 +27°C° 0 mm 2 mps 630 mmHg 36%
    14:00 +27°C° 0 mm 2 mps 629 mmHg 41%
    15:00 +26°C° 0 mm 2 mps 628 mmHg 46%
    16:00 +23°C° 0 mm 1 mps 627 mmHg 58%
    17:00 +21°C° 0 mm 1 mps 627 mmHg 71%
    18:00 +18°C° 0 mm 1 mps 626 mmHg 84%
    19:00 +18°C° 0 mm 1 mps 627 mmHg 81%
    20:00 +18°C° 0 mm 1 mps 628 mmHg 79%
    21:00 +16°C° 0 mm 2 mps 628 mmHg 76%
    22:00 +16°C° 0 mm 2 mps 628 mmHg 75%
    23:00 +16°C° 0 mm 2 mps 628 mmHg 74%

    Tomorrow, 20 October, Friday

    Time Temperature Precipitation Wind Pressure Humidity
    00:00 +16°C° 0 mm 2 mps 628 mmHg 72%
    01:00 +16°C° 0 mm 2 mps 628 mmHg 71%
    02:00 +15°C° 0 mm 2 mps 628 mmHg 70%
    03:00 +15°C° 0 mm 2 mps 628 mmHg 69%
    04:00 +15°C° 0 mm 2 mps 628 mmHg 65%
    05:00 +15°C° 0 mm 2 mps 628 mmHg 62%
    06:00 +16°C° 0 mm 2 mps 628 mmHg 58%
    07:00 +19°C° 0 mm 1 mps 629 mmHg 53%
    08:00 +21°C° 0 mm 1 mps 630 mmHg 48%
    09:00 +22°C° 0 mm 0 mps 631 mmHg 43%
    10:00 +24°C° 0 mm 1 mps 631 mmHg 43%
    11:00 +25°C° 0 mm 1 mps 630 mmHg 44%
    12:00 +26°C° 0 mm 2 mps 630 mmHg 44%
    13:00 +25°C° 0 mm 2 mps 629 mmHg 51%
    14:00 +24°C° 0 mm 1 mps 629 mmHg 57%
    15:00 +23°C° 0 mm 1 mps 628 mmHg 63%
    16:00 +22°C° 0.1 mm 1 mps 628 mmHg 73%
    17:00 +20°C° 0.1 mm 1 mps 627 mmHg 82%
    18:00 +17°C° 0.1 mm 0 mps 627 mmHg 92%
    19:00 +17°C° 0.8 mm 0 mps 628 mmHg 93%
    20:00 +17°C° 0.8 mm 0 mps 628 mmHg 93%
    21:00 +16°C° 0.8 mm 0 mps 629 mmHg 93%
    22:00 +18°C° 1.4 mm 1 mps 628 mmHg 93%
    23:00 +18°C° 1.4 mm 1 mps 628 mmHg 94%

    Day after tomorrow, 21 October, Saturday

    Time Temperature Precipitation Wind Pressure Humidity
    00:00 +18°C° 1.4 mm 1 mps 627 mmHg 94%
    01:00 +18°C° 1.7 mm 1 mps 627 mmHg 94%
    02:00 +18°C° 1.7 mm 1 mps 627 mmHg 94%
    03:00 +16°C° 1.7 mm 1 mps 626 mmHg 94%
    04:00 +16°C° 1.2 mm 1 mps 626 mmHg 94%
    05:00 +16°C° 1.2 mm 1 mps 626 mmHg 94%
    06:00 +16°C° 1.2 mm 1 mps 626 mmHg 94%
    07:00 +18°C° 1.4 mm 1 mps 627 mmHg 93%
    08:00 +18°C° 1.4 mm 1 mps 627 mmHg 93%
    09:00 +16°C° 1.4 mm 0 mps 628 mmHg 93%
    10:00 +17°C° 0.8 mm 0 mps 628 mmHg 91%
    11:00 +17°C° 0.8 mm 0 mps 627 mmHg 89%
    12:00 +18°C° 0.8 mm 0 mps 627 mmHg 87%
    13:00 +19°C° 2.1 mm 1 mps 626 mmHg 90%
    14:00 +19°C° 2.1 mm 1 mps 626 mmHg 93%
    15:00 +18°C° 2.1 mm 1 mps 625 mmHg 95%
    16:00 +18°C° 2.4 mm 1 mps 625 mmHg 95%
    17:00 +18°C° 2.4 mm 1 mps 625 mmHg 95%
    18:00 +18°C° 2.4 mm 1 mps 626 mmHg 96%
    19:00 +18°C° 1.2 mm 1 mps 626 mmHg 95%
    20:00 +18°C° 1.2 mm 1 mps 626 mmHg 95%
    21:00 +16°C° 1.2 mm 1 mps 627 mmHg 94%
    22:00 +16°C° 1.8 mm 1 mps 626 mmHg 94%
    23:00 +16°C° 1.8 mm 1 mps 626 mmHg 94%

    22 October, Sunday

    Time Temperature Precipitation Wind Pressure Humidity
    00:00 +16°C° 1.8 mm 1 mps 626 mmHg 95%
    01:00 +16°C° 2.5 mm 1 mps 625 mmHg 95%
    02:00 +16°C° 2.5 mm 1 mps 625 mmHg 95%
    03:00 +16°C° 2.5 mm 1 mps 625 mmHg 95%
    04:00 +16°C° 2.4 mm 1 mps 625 mmHg 95%
    05:00 +16°C° 2.4 mm 1 mps 625 mmHg 95%
    06:00 +16°C° 2.4 mm 1 mps 625 mmHg 95%
    07:00 +18°C° 1.7 mm 1 mps 625 mmHg 94%
    08:00 +18°C° 1.7 mm 1 mps 626 mmHg 94%
    09:00 +19°C° 1.7 mm 1 mps 627 mmHg 93%
    10:00 +19°C° 0.5 mm 1 mps 626 mmHg 92%
    11:00 +20°C° 0.5 mm 1 mps 626 mmHg 90%
    12:00 +20°C° 0.5 mm 1 mps 626 mmHg 88%
    13:00 +20°C° 0.1 mm 1 mps 625 mmHg 88%
    14:00 +20°C° 0.1 mm 1 mps 625 mmHg 87%
    15:00 +21°C° 0.1 mm 1 mps 625 mmHg 87%
    16:00 +20°C° 0 mm 1 mps 625 mmHg 90%
    17:00 +17°C° 0 mm 0 mps 625 mmHg 94%
    18:00 +16°C° 0 mm 0 mps 625 mmHg 97%
    19:00 +16°C° 0 mm 0 mps 625 mmHg 96%
    20:00 +16°C° 0 mm 0 mps 626 mmHg 95%
    21:00 +18°C° 0 mm 1 mps 626 mmHg 95%
    22:00 +16°C° 0 mm 1 mps 626 mmHg 94%
    23:00 +16°C° 0 mm 1 mps 626 mmHg 93%

    23 October, Monday

    Time Temperature Precipitation Wind Pressure Humidity
    00:00 +16°C° 0 mm 1 mps 626 mmHg 92%
    01:00 +16°C° 0 mm 1 mps 626 mmHg 91%
    02:00 +15°C° 0 mm 1 mps 625 mmHg 90%
    03:00 +15°C° 0 mm 1 mps 625 mmHg 89%
    04:00 +15°C° 0 mm 1 mps 626 mmHg 87%
    05:00 +15°C° 0 mm 1 mps 626 mmHg 86%
    06:00 +15°C° 0 mm 1 mps 626 mmHg 85%
    07:00 +18°C° 0 mm 1 mps 627 mmHg 78%
    08:00 +20°C° 0 mm 1 mps 628 mmHg 72%
    09:00 +23°C° 0 mm 1 mps 629 mmHg 65%
    10:00 +24°C° 0 mm 1 mps 629 mmHg 63%
    11:00 +24°C° 0 mm 2 mps 629 mmHg 61%
    12:00 +25°C° 0 mm 2 mps 629 mmHg 59%
    13:00 +25°C° 0.1 mm 2 mps 628 mmHg 64%
    14:00 +24°C° 0.1 mm 2 mps 627 mmHg 69%
    15:00 +23°C° 0.1 mm 2 mps 627 mmHg 73%
    16:00 +21°C° 0.1 mm 1 mps 627 mmHg 81%
    17:00 +20°C° 0.1 mm 1 mps 626 mmHg 89%
    18:00 +16°C° 0.1 mm 0 mps 626 mmHg 97%
    19:00 +18°C° 0 mm 1 mps 626 mmHg 95%
    20:00 +16°C° 0 mm 1 mps 627 mmHg 94%
    21:00 +16°C° 0 mm 1 mps 627 mmHg 93%
    22:00 +16°C° 0 mm 1 mps 627 mmHg 91%
    23:00 +15°C° 0 mm 1 mps 627 mmHg 89%

    24 October, Tuesday

    Time Temperature Precipitation Wind Pressure Humidity
    00:00 +15°C° 0 mm 1 mps 627 mmHg 88%
    01:00 +15°C° 0 mm 1 mps 627 mmHg 86%
    02:00 +14°C° 0 mm 2 mps 627 mmHg 84%
    03:00 +14°C° 0 mm 2 mps 626 mmHg 82%
    04:00 +14°C° 0 mm 2 mps 627 mmHg 79%
    05:00 +13°C° 0 mm 2 mps 627 mmHg 76%
    06:00 +13°C° 0 mm 2 mps 627 mmHg 73%
    07:00 +16°C° 0 mm 1 mps 628 mmHg 64%
    08:00 +20°C° 0 mm 1 mps 629 mmHg 55%
    09:00 +23°C° 0 mm 1 mps 631 mmHg 46%
    10:00 +24°C° 0 mm 1 mps 630 mmHg 46%
    11:00 +25°C° 0 mm 2 mps 630 mmHg 47%
    12:00 +25°C° 0 mm 2 mps 630 mmHg 47%
    13:00 +24°C° 0 mm 2 mps 629 mmHg 53%
    14:00 +24°C° 0 mm 2 mps 628 mmHg 58%
    15:00 +23°C° 0 mm 2 mps 628 mmHg 63%
    16:00 +21°C° 0.1 mm 1 mps 627 mmHg 73%
    17:00 +19°C° 0.1 mm 1 mps 627 mmHg 83%
    18:00 +15°C° 0.1 mm 0 mps 627 mmHg 93%
    19:00 +15°C° 0 mm 1 mps 627 mmHg 89%
    20:00 +15°C° 0 mm 1 mps 628 mmHg 86%
    21:00 +14°C° 0 mm 1 mps 628 mmHg 83%
    22:00 +14°C° 0 mm 1 mps 628 mmHg 77%
    23:00 +13°C° 0 mm 2 mps 628 mmHg 72%
    Show more